Regional Weather Roundup
Issued by NWS

Home | Current Version | Previous Version | Text Only | Print | Product List | Glossary Off
Versions: 1 2 3 4 5 6 7 8 9 10 11 12 13 14 15 16 17 18 19 20 21 22 23 24 25 26 27 28 29 30 31 32 33 34 35 36 37 38 39 40 41 42 43 44 45 46 47 48 49 50

000
ASUS45 KPSR 201700
RWRAZ

PRELIMINARY ARIZONA REGIONAL HOURLY WEATHER ROUNDUP
NATIONAL WEATHER SERVICE PHOENIX AZ
1000 AM MST MON OCT 20 2014

NOTE: FAIR INDICATES FEW OR NO CLOUDS BELOW 12,000 FEET WITH NO
SIGNIFICANT WEATHER AND/OR OBSTRUCTIONS TO VISIBILITY.

AZZ001>003-036-201800-
NORTHWEST ARIZONA

CITY           SKY/WX    TMP DP  RH WIND       PRES   REMARKS
KINGMAN        SUNNY     74  45  35 CALM      30.03F
$$

AZZ004>008-015-016-018-201800-
NORTH CENTRAL ARIZONA

CITY           SKY/WX    TMP DP  RH WIND       PRES   REMARKS
GRAND CANYON   SUNNY     61  39  44 E9        30.21S
PRESCOTT       SUNNY     65  39  38 SE8       30.13S
FLAGSTAFF      SUNNY     57  38  48 CALM      30.22S
PAYSON         SUNNY     63  45  51 VRB5G13   30.16S
$$

AZZ009>014-017-201800-
NORTHEAST ARIZONA

CITY           SKY/WX    TMP DP  RH WIND       PRES   REMARKS
WINSLOW        NOT AVBL
SAINT JOHNS    CLOUDY    53  45  74 SW3       30.18S
WINDOW ROCK    CLOUDY    55  39  54 CALM      30.25S
$$

AZZ023-201800-
GREATER PHOENIX AREA

CITY           SKY/WX    TMP DP  RH WIND       PRES   REMARKS
PHOENIX        SUNNY     79  51  37 E12       29.92S
GLENDALE       SUNNY     77  55  47 CALM      29.94F
DEER VALLEY    SUNNY     79  47  32 E8        29.94S
SCOTTSDALE     SUNNY     79  47  32 E8        29.95S
MESA-FALCON    SUNNY     77  48  36 N12       29.93S
MESA-GATEWAY   SUNNY     77  52  41 E3        29.96S
CHANDLER       SUNNY     77  52  41 NE12      29.94S
$$

AZZ027-028-201800-
SOUTHWEST MARICOPA COUNTY AND PINAL COUNTY

CITY           SKY/WX    TMP DP  RH WIND       PRES   REMARKS
CASA GRANDE    SUNNY     75  50  41 CALM      29.94F
GILA BEND      SUNNY     79  48  34 SE9       29.92R
$$

AZZ503-504-507>509-201800-
SOUTHEAST ARIZONA

CITY           SKY/WX    TMP DP  RH WIND       PRES   REMARKS
TUCSON         SUNNY     75  51  43 SE9       29.99F
RYAN FIELD       N/A     75  52  43 SE13      29.99S
NOGALES        SUNNY     70  48  45 E3        30.03S
SIERRA VISTA   MOSUNNY   64  48  55 NE8       30.09R
SAFFORD        SUNNY     68  51  54 SE8       30.06F
$$

AZZ020-021-025-026-031-201800-
SOUTHWEST ARIZONA

CITY           SKY/WX    TMP DP  RH WIND       PRES   REMARKS
YUMA           SUNNY     85  50  29 E9        29.86S
$$

CAZ031-033-041-043-047-048-061-201800-
SOUTHERN CALIFORNIA

CITY           SKY/WX    TMP DP  RH WIND       PRES   REMARKS
DOWNTOWN L.A.  CLOUDY    68  60  75 CALM      29.95R
L.A. AIRPORT   CLOUDY    69  61  75 VRB3      29.95R
SAN DIEGO      CLOUDY    70  61  73 CALM      29.96S
BURBANK        CLOUDY    63  58  83 S3        29.96R HAZE
ONTARIO        CLOUDY    62  59  90 SW3       29.97R FOG
RIVERSIDE      CLOUDY    63  59  87 CALM      29.97R FOG
PALM SPRINGS   SUNNY     79  52  38 E5        29.90R
EL CENTRO NAS  SUNNY     80  62  54 E3        29.85R
IMPERIAL       SUNNY     79  61  53 E7        29.84S
BLYTHE         SUNNY     81  55  40 E3        29.88S
$$

NVZ020-UTZ003-201800-
SOUTHERN NEVADA-UTAH

CITY           SKY/WX    TMP DP  RH WIND       PRES   REMARKS
LAS VEGAS      NOT AVBL
SALT LAKE CITY MOSUNNY   66  38  35 SE10      30.06S
$$

NMZ009-TXZ055-201800-
NEW MEXICO-WEST TEXAS

CITY           SKY/WX    TMP DP  RH WIND       PRES   REMARKS
ALBUQUERQUE    PTSUNNY   62  42  47 NW7       30.20S
EL PASO        MOSUNNY   65  55  70 N12       30.10F
$$


........................KEY........................
SKY/WX - SKY CONDITION/WEATHER
TMP    - TEMPERATURE IN FAHRENHEIT
DP     - DEW POINT IN FAHRENHEIT
RH     - RELATIVE HUMIDITY IN PERCENT
WIND   - DIRECTION AND SPEED IN MILES PER HOUR (MPH)
VRB    - VARIABLE WIND DIRECTION
PRES   - MEAN SEA LEVEL PRESSURE IN INCHES OF MERCURY
         F - FALLING PRESSURE   R - RISING PRESSURE
         S - STEADY PRESSURE
VSB    - VISIBILITY IN MILES
HX     - HEAT INDEX IN FAHRENHEIT
WCI    - WIND CHILL INDEX IN FAHRENHEIT
TC     - TEMPERATURE IN CELSIUS WHICH IS ALSO KNOWN AS
         TEMPERATURE IN CENTIGRADE
AFB    - AIR FORCE BASE
         LUKE AFB IS LUKE AIR FORCE BASE
         DAVIS-MONTHAN IS DAVIS-MONTHAN AIR FORCE BASE
NAS    - NAVAL AIR STATION
         EL CENTRO NAS IS EL CENTRO NAVAL AIR STATION
N/A    - NOT AVAILABLE



USA.gov is the U.S. government's official web portal to all federal, state and local government web resources and services.